小惑星2006 RB118

2006 RB118

English version
Home page
Total 6,336 html files since Dec. 4, 1995
Updated on February 4, 2008

---------------------------------------------------------------------

・ プロフィール

発見日 2006年9月14日
発見光度
発見者

・ 軌道要素

The following orbital elements are taken from MPEC 2008-B50:

Epoch 2006 Sept. 2.0 TT = JDT 2453980.5                 MPC
M 330.77235              (2000.0)            P               Q
n   0.10410821     Peri.   89.68378     -0.34142794     -0.93982095
a   4.4752028      Node    20.29449     +0.84701857     -0.31355456
e   0.6348112      Incl.    2.11305     +0.40741441     -0.13572074
P   9.47           H   18.0           G   0.15
From 27 observations 2006 Sept. 14-22.

・ 光度変化

        H = 18.0  G = 0.15

---------------------------------------------------------------------

軌道要素はMPCのEphemerides and Orbital Elementsに掲載されたものです。
光度グラフはComet for Windowsで作成したものです。

---------------------------------------------------------------------

Copyright(C) 1995-2008 Seiichi Yoshida (comet@aerith.net). All rights reserved.